Location: Newark
(45.9456°N, 15.4064°E)
Time: 07:31:42
(UTC+00:00)

SR - Pass Details

Date: 27 January 2020
Orbit: 575 x 881 km, 66.7° (Epoch: 18 February)

Event Time Altitude Azimuth Distance (km) Brightness Sun altitude
Rises 06:08:51 0° 321° (NW) 3,387 - -3.7°
Exits shadow 06:08:57 - 321° (NW) 3,351 ? -3.7°
Reaches altitude 10° 06:11:31 10° 315° (NW) 2,409 ? -3.3°
Maximum altitude 06:16:39 41° 247° (WSW) 1,106 ? -2.4°
Drops below altitude 10° 06:21:23 10° 178° (S) 2,206 ? -1.7°
Sets 06:23:44 0° 171° (S) 3,071 ? -1.3°
